Wetbulb
54.93 55.97 57.48 57.51 63.12 64.80 64.94 64.58 63.55 63.06 62.85 62.67 63.21 62.75 62.18 62.11 61.32 59.83 59.12 58.41 58.42 58.10 56.79 55.66 55.48 54.85 54.45 54.65 54.03 53.29 54.43 53.57
55.72 57.19 58.39 59.53 60.94 64.61 63.98 62.62 61.85 61.71 60.45 60.17 60.78 60.89 60.65 60.75 60.81 60.63 58.52 58.18 57.81 57.73 57.08 55.33 55.27 54.57 54.43 54.04 53.66 52.99 52.98 53.68
57.15 58.10 58.17 58.09 58.52 62.29 62.76 62.55 61.80 61.72 60.31 58.57 58.75 58.59 58.36 58.85 59.26 59.51 59.77 58.42 57.92 57.54 56.63 55.65 54.91 54.91 53.85 53.55 53.18 52.53 53.73 53.29
55.32 56.56 55.85 55.98 56.22 56.94 58.14 59.79 60.13 59.01 57.92 54.75 52.93 52.68 52.44 52.75 53.75 53.62 53.99 57.24 58.23 57.10 55.60 54.49 53.63 54.44 53.67 52.94 52.82 52.09 52.03 53.00
54.29 54.40 53.89 54.29 54.45 55.29 56.33 57.09 57.57 57.08 54.99 53.96 53.95 51.89 50.61 49.98 48.88 49.01 47.50 48.24 48.66 48.86 48.85 48.59 48.51 48.85 50.38 51.13 53.34 51.78 51.79 50.99
50.49 51.37 52.29 53.58 53.88 53.60 53.75 54.28 55.13 54.66 53.75 52.78 51.79 52.51 49.45 47.24 46.78 46.74 46.87 46.80 46.79 47.45 47.51 47.96 47.69 47.75 48.41 48.92 49.46 50.52 50.98 50.78
49.47 50.55 50.89 50.63 51.18 52.51 53.07 53.33 53.10 52.95 51.82 51.34 51.09 51.14 48.98 46.90 45.67 45.65 45.60 45.75 45.82 46.06 46.62 46.47 46.83 47.15 47.23 47.60 48.13 48.81 49.09 49.50
48.45 49.06 49.23 49.38 49.73 50.52 51.88 52.64 52.47 51.86 50.97 50.77 50.46 49.79 48.19 46.53 46.14 45.47 44.68 44.63 44.50 44.98 45.59 45.14 45.44 46.09 46.76 47.41 47.42 47.04 47.88 47.69
48.84 49.62 48.59 47.96 48.70 49.54 50.64 51.45 51.97 52.51 50.97 50.76 50.09 49.73 48.91 47.08 47.13 45.53 44.81 45.20 44.75 43.47 43.22 44.80 45.16 45.14 45.39 46.04 46.41 46.46 46.75 46.48
46.75 45.96 46.15 45.65 45.27 46.36 46.72 49.02 50.30 51.24 51.67 51.05 50.21 49.88 48.75 48.12 46.90 45.74 45.36 44.83 44.34 43.25 43.64 42.86 44.26 44.36 44.65 44.79 43.97 43.88 44.15 44.46
44.74 44.42 45.02 45.33 45.69 46.63 46.69 46.93 47.72 50.93 51.15 51.83 52.52 50.48 49.52 48.60 46.88 46.35 45.63 44.62 44.14 43.60 44.05 43.81 43.53 43.52 43.62 42.79 42.14 42.54 42.52 42.68
43.08 43.61 44.47 45.19 45.58 45.38 46.55 47.41 48.43 47.96 49.04 50.52 51.00 50.58 51.32 49.99 48.68 48.85 45.90 44.00 44.38 44.49 43.76 43.15 42.56 42.08 42.01 41.53 41.45 41.63 41.41 41.85
43.56 44.11 44.64 44.20 44.21 45.02 46.47 47.21 47.77 48.12 48.93 49.48 50.83 50.00 50.03 49.89 48.65 46.09 43.34 44.08 44.26 44.07 43.58 42.67 42.13 41.36 41.45 40.71 40.29 40.82 40.50 40.39
43.12 43.52 43.84 43.99 43.92 44.50 46.56 47.12 47.17 48.11 48.10 47.30 47.21 49.41 48.88 48.31 47.03 45.80 44.66 45.19 43.95 43.56 43.11 42.22 42.00 41.30 40.35 39.83 39.33 39.57 39.36 39.28
43.25 42.05 43.24 44.27 45.95 45.97 46.51 46.45 47.03 47.56 47.82 47.18 46.49 46.58 48.92 48.47 48.18 48.75 47.26 45.45 43.98 43.28 43.09 42.55 42.54 41.36 40.75 40.36 39.73 38.92 38.88 39.72
43.41 43.38 43.35 44.23 45.02 45.27 45.78 46.74 46.83 47.95 47.38 46.91 46.87 47.19 48.08 48.38 48.69 47.48 46.45 44.74 43.98 43.80 43.12 42.58 42.14 41.22 40.73 39.85 39.59 38.54 38.15 38.06
43.70 43.94 44.02 43.95 44.96 45.38 45.93 45.83 45.95 47.62 46.09 45.31 45.75 47.05 46.20 47.84 48.00 46.25 45.75 44.00 43.15 42.53 41.75 41.08 39.34 40.50 39.01 38.83 38.71 38.34 37.87 36.80
42.00 42.07 42.73 43.56 43.54 45.25 44.57 45.15 46.24 46.58 45.89 46.59 47.31 46.22 46.13 47.52 48.39 46.52 44.47 42.85 42.15 41.08 40.39 39.87 38.71 37.86 38.17 38.10 37.10 36.82 36.28 36.36
41.78 41.43 41.70 42.62 43.51 44.12 45.29 46.17 46.15 46.38 46.02 45.82 47.41 47.25 46.96 47.73 46.96 45.48 45.66 43.50 41.68 40.80 39.95 39.70 39.08 38.37 37.98 37.79 36.60 36.50 36.07 36.21
MSLP
1006.80 1007.01 1007.00 1007.23 1007.17 1007.92 1009.16 1010.20 1011.09 1011.91 1012.45 1012.74 1013.06 1013.24 1013.57 1013.83 1014.14 1014.51 1014.89 1014.90 1015.03 1015.25 1015.44 1015.65 1015.81 1016.06 1016.24 1016.65 1016.47 1016.48 1016.65 1017.28
1007.02 1007.49 1007.72 1007.89 1008.26 1008.95 1010.14 1010.80 1011.56 1012.14 1012.75 1013.25 1013.27 1013.44 1013.61 1013.99 1013.87 1013.94 1014.44 1014.77 1014.78 1014.95 1015.11 1015.28 1015.43 1015.77 1016.10 1016.41 1016.43 1016.48 1016.50 1016.73
1007.87 1008.42 1008.84 1009.53 1009.74 1010.23 1010.66 1011.25 1011.85 1012.32 1012.73 1013.15 1013.31 1013.29 1013.43 1013.44 1013.53 1013.63 1013.86 1014.14 1014.41 1014.61 1014.78 1014.97 1015.31 1015.65 1015.69 1016.01 1015.78 1016.25 1016.43 1016.32
1008.04 1008.76 1009.27 1009.74 1010.56 1011.01 1011.29 1011.52 1011.85 1012.22 1012.57 1013.16 1013.59 1013.78 1013.82 1013.73 1013.71 1013.80 1013.90 1013.69 1013.73 1013.86 1014.37 1014.65 1014.99 1015.00 1015.48 1015.71 1015.60 1015.82 1015.95 1016.04
1008.37 1009.19 1009.80 1010.40 1010.89 1011.19 1011.41 1011.50 1012.00 1012.62 1013.02 1013.56 1014.01 1014.18 1014.35 1014.30 1014.33 1014.39 1014.61 1014.50 1014.36 1014.43 1014.50 1014.83 1014.92 1015.41 1015.08 1015.24 1015.66 1015.83 1016.04 1016.65
1008.87 1009.66 1010.24 1010.86 1011.24 1011.69 1012.09 1012.03 1012.20 1012.47 1012.76 1013.16 1013.74 1014.12 1014.44 1014.58 1014.67 1014.75 1014.92 1015.11 1015.00 1015.07 1015.10 1015.04 1015.37 1015.22 1015.49 1015.92 1015.51 1015.68 1015.85 1016.30
1009.68 1010.14 1010.69 1011.11 1011.23 1011.55 1011.72 1011.74 1011.87 1012.05 1012.44 1012.87 1013.27 1013.61 1014.01 1014.37 1014.52 1014.82 1014.98 1015.12 1015.21 1015.19 1015.26 1015.27 1015.47 1015.37 1015.63 1015.85 1015.88 1015.68 1015.51 1016.19
1009.82 1010.43 1010.74 1010.84 1011.09 1011.08 1011.34 1011.56 1011.75 1011.89 1012.08 1012.44 1012.74 1013.11 1013.32 1013.87 1014.28 1014.57 1014.82 1014.93 1014.95 1014.81 1014.87 1014.99 1015.13 1015.29 1015.62 1015.83 1016.03 1015.94 1015.79 1015.90
1009.75 1010.16 1010.21 1010.61 1010.74 1010.91 1011.07 1011.23 1011.35 1011.51 1011.81 1011.92 1012.28 1012.43 1012.79 1013.03 1013.37 1013.77 1013.92 1013.90 1013.72 1013.86 1014.31 1014.54 1014.73 1014.96 1015.23 1015.62 1015.92 1015.76 1015.81 1016.02
1009.34 1009.85 1009.92 1010.07 1010.12 1010.24 1010.43 1010.72 1010.83 1010.70 1010.97 1011.22 1011.34 1011.59 1012.14 1012.35 1012.36 1012.62 1012.96 1013.14 1013.36 1013.63 1014.04 1014.24 1014.41 1014.61 1014.97 1015.30 1015.59 1015.75 1015.88 1016.10
1009.28 1009.39 1009.39 1009.54 1009.64 1009.70 1009.86 1009.96 1009.98 1010.05 1010.16 1010.32 1010.32 1010.69 1011.23 1011.85 1012.15 1012.08 1012.20 1012.65 1013.21 1013.48 1013.73 1014.15 1014.44 1014.59 1014.86 1015.11 1015.35 1015.61 1015.85 1016.22
1008.84 1009.07 1009.16 1009.30 1009.28 1009.23 1009.27 1009.31 1009.37 1009.71 1009.91 1009.69 1010.07 1010.55 1010.80 1010.71 1011.64 1011.48 1011.78 1012.35 1012.90 1013.25 1013.63 1013.87 1014.01 1014.35 1014.63 1014.90 1015.14 1015.44 1015.72 1016.10
1008.60 1008.80 1008.89 1009.02 1009.11 1009.10 1008.98 1008.96 1009.00 1009.18 1009.37 1009.46 1009.66 1009.94 1010.04 1010.24 1010.82 1011.17 1011.67 1012.22 1012.63 1012.98 1013.54 1013.87 1013.95 1014.24 1014.50 1014.82 1015.12 1015.21 1015.65 1015.94
1008.40 1008.59 1008.84 1009.01 1008.99 1008.88 1009.01 1008.94 1008.98 1008.97 1009.03 1009.17 1009.26 1009.45 1009.71 1009.94 1010.46 1010.94 1011.61 1012.01 1012.39 1012.76 1013.10 1013.26 1013.65 1013.94 1014.30 1014.79 1015.14 1015.33 1015.66 1015.87
1008.03 1008.96 1009.30 1009.19 1009.05 1008.90 1009.26 1008.90 1009.14 1008.92 1008.85 1008.84 1008.75 1008.95 1009.16 1009.45 1009.59 1009.97 1010.56 1011.30 1011.90 1012.28 1012.53 1013.05 1013.26 1013.65 1014.10 1014.48 1015.09 1015.46 1015.67 1015.73
1008.65 1008.97 1009.23 1009.02 1009.10 1009.18 1009.47 1009.16 1008.94 1008.78 1008.71 1008.56 1008.38 1008.20 1008.10 1008.51 1008.81 1009.22 1009.99 1010.52 1010.93 1011.45 1011.98 1012.41 1012.81 1013.03 1013.69 1014.24 1014.77 1015.35 1015.57 1015.74
1008.77 1009.04 1009.25 1009.21 1009.30 1009.23 1009.13 1008.89 1008.41 1008.11 1008.24 1008.01 1007.88 1007.66 1007.39 1007.49 1007.89 1008.57 1009.26 1009.92 1010.61 1011.06 1011.47 1011.81 1012.24 1012.53 1012.95 1013.71 1014.27 1014.92 1015.30 1015.60
1008.88 1009.11 1009.32 1009.35 1009.37 1009.31 1009.09 1008.81 1008.66 1008.43 1007.76 1007.48 1007.49 1007.06 1006.75 1006.86 1007.36 1008.26 1008.95 1009.63 1009.97 1010.56 1010.97 1011.25 1011.64 1012.09 1012.50 1013.30 1013.86 1014.43 1014.89 1015.24
1008.88 1008.98 1009.14 1009.34 1009.29 1009.38 1009.22 1008.69 1008.53 1008.51 1008.30 1007.79 1007.30 1007.26 1007.35 1006.93 1007.15 1007.60 1008.06 1008.72 1009.45 1009.80 1010.20 1010.64 1011.06 1011.62 1012.14 1012.70 1013.33 1014.32 1014.78 1015.17
Wind_Speed
8 10 9 8 8 14 8 6 8 4 4 4 3 3 3 4 5 5 7 7 8 7 5 5 4 3 3 5 6 4 8 9
9 9 12 14 11 12 8 10 6 4 2 2 1 3 3 2 4 7 8 8 9 9 5 4 6 8 9 8 4 5 5 9
12 12 13 13 13 9 8 8 8 5 3 2 2 3 3 3 4 5 9 9 9 9 9 7 5 6 7 10 6 4 4 10
12 13 12 10 10 8 8 7 7 5 5 3 3 3 3 1 1 2 2 6 10 10 8 6 4 8 9 6 6 8 9 9
12 11 10 9 6 7 6 7 8 6 6 4 1 1 2 1 2 3 4 6 5 5 6 5 5 3 3 1 2 4 1 4
10 9 9 8 7 6 5 6 6 6 6 5 2 2 1 1 1 2 2 3 5 5 5 5 4 3 4 5 3 5 3 3
10 8 8 7 6 7 7 7 7 7 7 6 6 5 4 2 2 2 1 1 1 2 3 3 2 3 3 2 3 3 5 5
8 7 6 7 8 8 6 7 6 8 8 8 8 7 7 5 4 3 3 2 3 5 4 4 3 4 3 3 2 3 3 5
8 9 7 0 1 4 6 6 6 7 8 9 8 8 6 6 7 6 7 7 8 7 6 6 6 5 5 4 3 3 5 3
6 7 5 3 2 1 2 4 8 8 10 8 9 9 9 9 10 8 7 7 5 6 5 6 7 6 6 6 4 4 4 4
4 4 3 2 4 4 3 4 5 6 7 8 11 11 9 7 8 10 9 6 6 7 8 8 7 6 6 6 4 4 5 4
2 2 1 1 3 4 5 3 1 3 4 6 3 6 7 10 10 9 7 6 7 8 9 9 9 9 7 6 4 4 5 4
1 2 4 3 5 6 6 4 2 3 2 2 6 6 7 7 9 6 6 8 8 8 7 8 9 8 7 7 7 7 8 6
3 1 1 4 6 6 5 3 4 4 3 3 2 5 6 8 7 7 7 8 8 9 10 11 11 10 10 8 7 6 6 5
3 6 4 6 8 4 3 2 4 6 5 6 6 4 9 10 9 11 11 10 10 10 10 11 11 10 10 10 9 8 7 7
6 4 4 5 6 6 6 7 6 5 6 7 8 8 7 8 11 11 11 11 11 11 10 10 10 11 9 12 11 10 9 8
6 6 6 6 6 6 6 6 6 6 9 7 7 8 8 8 7 10 12 11 10 10 12 12 12 9 13 17 13 10 11 11
5 5 5 6 7 7 7 6 6 8 7 6 6 8 8 6 6 9 10 10 10 11 11 11 12 10 14 12 13 7 7 7
1 1 2 4 5 7 7 5 5 6 11 7 4 5 4 2 6 8 9 11 12 11 12 12 11 10 18 18 15 6 6 6
Wind_Direction
75 59 46 64 56 163 131 122 116 114 108 107 108 139 152 179 183 191 212 213 212 205 215 202 202 217 251 249 204 193 172 164
84 70 57 55 54 89 92 109 127 139 95 106 159 190 170 189 198 196 198 210 216 222 218 195 198 206 223 228 229 206 167 163
84 70 64 57 55 80 93 117 129 150 129 144 177 163 198 180 189 195 204 202 207 206 207 211 220 247 227 222 193 198 219 180
103 87 78 65 64 72 88 94 113 111 127 91 46 17 8 360 298 332 8 217 205 200 210 206 189 203 216 221 221 212 211 210
105 101 91 97 84 78 84 86 89 98 83 63 34 246 252 318 30 29 23 32 57 71 99 93 83 20 89 67 257 178 51 227
101 104 112 111 111 107 101 98 106 125 127 137 126 285 27 13 47 62 73 53 54 62 65 82 78 63 82 15 95 128 99 119
86 92 115 127 146 162 175 175 183 166 157 169 180 203 192 232 209 221 213 123 50 59 82 80 109 102 96 88 88 62 116 123
135 150 166 186 195 201 201 194 196 184 177 183 188 190 178 192 205 190 195 217 224 217 174 171 173 166 153 145 147 111 133 125
163 188 193 156 258 222 232 218 229 197 192 197 193 190 183 179 188 191 203 207 212 182 181 179 178 176 175 177 171 146 122 104
166 95 142 145 111 51 182 223 252 236 197 198 201 192 186 197 197 196 206 212 204 195 187 180 181 178 182 178 168 157 125 110
117 123 145 171 168 204 221 246 285 251 249 203 211 191 188 198 192 204 204 199 186 176 181 181 177 168 159 156 154 146 148 140
68 356 297 252 270 257 227 222 190 294 288 272 206 169 183 180 216 214 193 155 175 182 182 177 170 166 161 159 166 175 182 158
114 241 246 262 277 277 227 209 206 281 285 103 185 191 199 190 213 196 156 168 174 179 179 186 173 169 157 170 185 195 204 185
224 291 5 321 298 286 222 215 236 261 272 301 310 205 195 199 192 165 168 172 181 187 190 180 183 178 174 180 190 189 187 192
87 53 51 26 12 350 286 293 285 271 267 277 275 215 197 195 185 188 180 183 186 191 189 196 185 178 180 181 187 192 196 194
81 68 45 36 23 12 354 324 323 310 275 268 259 249 220 191 194 182 184 183 188 188 188 188 184 177 182 185 185 199 196 195
62 40 26 16 351 313 282 266 251 244 259 266 261 245 236 213 179 171 173 179 184 184 191 191 186 184 179 185 186 197 203 192
58 29 360 346 331 318 291 295 310 284 260 286 303 268 244 212 160 161 171 189 180 193 196 190 191 186 170 159 143 151 149 144
306 232 292 300 301 312 302 296 316 331 328 311 351 21 22 53 157 183 178 175 190 193 196 198 194 188 173 167 143 142 138 138